Home > Weather > Cottbus > Past weeks

Flag for Germany Weather for the Past 2 Weeks in Cottbus, Brandenburg, Germany

Now
61 °F

Scattered clouds.


Feels Like: 61 °F
Forecast: 44 / 55 °F
Wind: 3 mph from North

Location: Holzdorf

Current Time: May 3, 2016 at 12:39:30 PM

Latest Report: May 3, 2016 at 11:20 AM


Visibility: N/A

Pressure: 30.04 "Hg

Humidity: 48%

Dew Point: 41 °F

Location of CottbusLocation

Historic Weather in Cottbus — Graph

°F

Cottbus Temperature Yesterday

Maximum temperature yesterday: 64 °F (at 2:20 PM)
Minimum temperature yesterday: 36 °F (at 6:20 AM)
Average temperature yesterday: 52 °F

High & Low Weather Summary for the Past Weeks

 TemperatureHumidityPressure
High66 °F (Apr 30, 4:20 PM)100% (Apr 21, 2:20 AM)30.39 "Hg (Apr 21, 2:20 AM)
Low28 °F (Apr 21, 4:20 AM)28% (Apr 30, 3:20 PM)29.47 "Hg (Apr 26, 5:20 AM)
Average45 °F66%29.99 "Hg
* Reported Apr 18 10:20 AM — May 3 10:20 AM, Cottbus, Weather by CustomWeather, © 2016

Note: Actual official high and low records may vary slightly from our data, if they occured in-between our weather recording intervals... More about our weather records

Advertising

Cottbus Weather History for the Previous 24 Hours

Scroll right to see more
 ConditionsComfort  
Time TempWeatherWind HumidityBarometerVisibility
10:20 AM
Tue, May 3
59 °FScattered clouds.2 mph59%30.04 "HgN/A
9:20 AM55 °FPassing clouds.2 mph67%30.07 "HgN/A
8:20 AM48 °FPassing clouds.3 mph82%30.07 "HgN/A
7:20 AM43 °FPassing clouds.1 mph93%30.07 "HgN/A
6:20 AM36 °FFog.No wind93%30.07 "HgN/A
5:20 AM36 °FFog.2 mph93%30.07 "HgN/A
4:20 AM36 °FPassing clouds.1 mph100%30.07 "HgN/A
3:20 AM37 °FChilly.1 mph93%30.09 "HgN/A
2:20 AM37 °FChilly.No wind100%30.09 "HgN/A
1:20 AM39 °FChilly.No wind93%30.09 "HgN/A
12:20 AM41 °FPassing clouds.1 mph93%30.12 "HgN/A
12:00 AM43 °FPassing clouds.1 mph87%30.12 "HgN/A
11:20 PM
Mon, May 2
45 °FPassing clouds.1 mph81%30.12 "HgN/A
10:20 PM46 °FPassing clouds.2 mph76%30.12 "HgN/A
9:20 PM52 °FPassing clouds.2 mph67%30.12 "HgN/A
8:20 PM59 °FPassing clouds.8 mph48%30.12 "HgN/A
7:20 PM64 °FPassing clouds.10 mph40%30.12 "HgN/A
6:20 PM61 °FPassing clouds.6 mph45%30.15 "HgN/A
5:20 PM64 °FPassing clouds.6 mph40%30.15 "HgN/A
4:20 PM64 °FScattered clouds.3 mph40%30.18 "HgN/A
3:20 PM64 °FScattered clouds.9 mph40%30.18 "HgN/A
2:20 PM64 °FScattered clouds.10 mph40%30.21 "HgN/A
1:20 PM63 °FPassing clouds.8 mph45%30.21 "HgN/A
12:20 PM61 °FPassing clouds.8 mph48%30.24 "HgN/A
Weather by CustomWeather, © 2016

See weather overviewHow to use our weather pages